LENINGRAD/PULKOVO current weather conditions

sailwx.info

Wind from 030 at 7 knots

Air temperature -5.0° C
Visibility: greater than 5.4 NM
Dewpoint -9.0° C

Last reported at 2017-Jan-24 21:30 UTC.
Time now 2017-Jan-24 23:29 UTC

Location: N 59°48' E 030°16'.
View on Google Maps.

See reports from other nearby stations

  
Tides and Currents Weather Stations Pressure Air Temp Water Temp Dewpoint Dewpoint Depression Visibility Wind Speed Wind Dir Waves Ship Positions
date/time (UTC)wind fromknots sea level pressurealtimeterstation pressurevisibilityair tempwater tempwave heightnotes
2017-Jan-24 22:30 050 7 5.4-5.0
2017-Jan-24 22:00 040 5 5.4-5.0
2017-Jan-24 21:30 030 7 5.4-5.0
2017-Jan-24 21:00 040 7 5.4-5.0
2017-Jan-24 20:30 040 5 5.4-5.0
2017-Jan-24 20:00 020 7 5.4-5.0
2017-Jan-24 19:30 020 7 5.4-5.0
2017-Jan-24 19:00 020 9 5.4-5.0
2017-Jan-24 18:30 040 7 5.4-5.0
2017-Jan-24 18:00 040 5 5.4-5.0
2017-Jan-24 17:30 030 7 5.4-6.0
2017-Jan-24 17:00 030 3 5.4-6.0
2017-Jan-24 16:30 040 7 5.4-6.0
2017-Jan-24 16:00 030 7 5.4-5.0 Light snow.
2017-Jan-24 15:30 030 7 5.4-5.0 Light snow.
2017-Jan-24 15:00 030 9 5.4-5.0 Light snow.
2017-Jan-24 14:30 030 11 5.4-5.0 Light snow.
2017-Jan-24 14:00 030 13 5.4-5.0 Light snow.
2017-Jan-24 13:30 010 11 5.4-5.0
2017-Jan-24 13:00 010 11 5.4-5.0
2017-Jan-24 12:30 020 11 5.4-4.0
2017-Jan-24 12:00 010 11 5.4-4.0
2017-Jan-24 11:30 020 9 5.4-4.0
2017-Jan-24 11:00 020 9 5.4-4.0
2017-Jan-24 10:30 030 9 5.4-3.0
2017-Jan-24 10:00 020 13 5.4-3.0
2017-Jan-24 09:30 030 9 5.4-3.0 Light snow.
2017-Jan-24 09:00 030 5 gusting 15 5.4-3.0
2017-Jan-24 08:30 030 13 5.4-2.0
2017-Jan-24 08:00 040 11 5.4-2.0
2017-Jan-24 07:30 020 9 5.4-2.0
2017-Jan-24 07:00 020 9 5.4-2.0
2017-Jan-24 06:30 020 9 5.4-2.0
2017-Jan-24 06:00 350 11 5.4-1.0
2017-Jan-24 05:30 010 11 5.4-1.0
2017-Jan-24 05:00 020 11 5.4-0.0
2017-Jan-24 04:30 330 7 5.4-0.0
2017-Jan-24 04:00 300 9 5.4 1.0
2017-Jan-24 03:30 310 9 5.4 1.0
2017-Jan-24 03:00 300 11 5.4 1.0
2017-Jan-24 02:30 310 9 5.4 1.0
2017-Jan-24 02:00 300 11 5.4 1.0
2017-Jan-24 01:30 300 11 5.4 1.0 Light rain showers.
2017-Jan-24 01:00 310 9 5.4 1.0 Light rain showers.
2017-Jan-24 00:30 290 9 5.4 1.0
2017-Jan-24 00:00 290 9 5.4-0.0
2017-Jan-23 23:30 280 9 4.9-0.0 Light rain showers.
2017-Jan-23 23:00 280 9 3.8-0.0 Light snow showers.
2017-Jan-23 22:30 280 9 1.3-0.0 Light snow showers.
2017-Jan-23 22:00 270 11 5.4-0.0
2017-Jan-23 21:30 270 9 4.9-0.0 Light rain showers.
2017-Jan-23 21:00 270 9 2.3-0.0 Light rain showers.
2017-Jan-23 20:30 270 11 4.9-0.0 Light rain showers.
2017-Jan-23 20:00 280 11 2.7-0.0 Light rain showers.
2017-Jan-23 19:30 280 15 0.9-0.0 Rain showers.
2017-Jan-23 19:00 270 11 1.6-0.0 Light drizzle snow.
2017-Jan-23 18:30 270 11 2.4-0.0 Light drizzle snow.
2017-Jan-23 18:00 270 11 5.4-0.0 Light drizzle snow.
2017-Jan-23 17:30 270 11 4.9-0.0 Light drizzle snow.
2017-Jan-23 17:00 270 15 3.2-0.0 Light drizzle snow.
2017-Jan-23 16:30 270 15 4.9 1.0 Light drizzle snow.
2017-Jan-23 16:00 270 13 5.4 1.0 Light rain.
2017-Jan-23 15:30 280 13 5.4 1.0
2017-Jan-23 15:00 270 13 5.4 1.0
2017-Jan-23 14:30 260 11 5.4 1.0
2017-Jan-23 14:00 270 13 5.4 1.0
2017-Jan-23 13:30 260 11 gusting 21 5.4 1.0
2017-Jan-23 13:00 260 11 5.4 1.0
2017-Jan-23 12:30 260 11 5.4 1.0
2017-Jan-23 12:00 270 9 5.4 1.0
2017-Jan-23 11:30 260 11 5.4 1.0
2017-Jan-23 11:00 270 11 4.3 1.0 Light rain.
2017-Jan-23 10:30 280 11 5.4 1.0
2017-Jan-23 10:00 270 13 5.4 1.0
2017-Jan-23 09:30 270 15 5.4 1.0
2017-Jan-23 09:00 270 15 5.4 1.0
2017-Jan-23 08:30 260 13 5.4 1.0
2017-Jan-23 08:00 260 9 5.4 1.0
2017-Jan-23 07:30 270 13 5.4 1.0
2017-Jan-23 07:00 260 11 3.2 1.0 Light drizzle.
2017-Jan-23 06:30 270 11 4.3 1.0 Light drizzle.
2017-Jan-23 06:00 260 11 3.2 1.0
2017-Jan-23 05:30 260 13 5.4 1.0
2017-Jan-23 05:00 260 9 5.4 1.0
2017-Jan-23 04:30 260 9 5.4 1.0
2017-Jan-23 04:00 260 9 5.4 1.0
2017-Jan-23 03:30 260 7 gusting 17 5.4 1.0
2017-Jan-23 03:00 260 7 5.4 1.0
2017-Jan-23 02:30 270 9 5.4 1.0
2017-Jan-23 02:00 260 7 5.4 1.0
2017-Jan-23 01:30 260 7 5.4 1.0
2017-Jan-23 01:00 260 7 5.4 1.0
2017-Jan-23 00:30 260 9 5.4 1.0
2017-Jan-23 00:00 260 7 5.4 1.0
2017-Jan-22 23:30 270 7 5.4 1.0
2017-Jan-22 23:00 270 9 5.4 1.0